Regional Weather Roundup
Issued by NWS

Home | Current Version | Previous Version | Graphics & Text | Print | Product List | Glossary Off
Versions: 1 2 3 4 5 6 7 8 9 10 11 12 13 14 15 16 17 18 19 20 21 22 23 24 25 26 27 28 29 30 31 32 33 34 35 36 37 38 39 40 41 42 43 44 45 46 47 48 49 50

000
ASUS43 KMKX 211100
RWRWI

WISCONSIN REGIONAL WEATHER ROUNDUP
NATIONAL WEATHER SERVICE MILWAUKEE/SULLIVAN WI
600 AM CDT TUE OCT 21 2014

NOTE: "FAIR" INDICATES FEW OR NO CLOUDS BELOW 12,000 FEET WITH NO
SIGNIFICANT WEATHER AND/OR OBSTRUCTIONS TO VISIBILITY.

WIZ001-002-006>008-014>016-023>028-211200-
NORTHWEST WISCONSIN

CITY           SKY/WX    TMP DP  RH WIND       PRES   REMARKS
SUPERIOR ARPT  CLOUDY    44  38  79 E6        30.20R
ASHLAND        CLOUDY    43  37  79 NE7       30.22R
HAYWARD        CLOUDY    42  35  76 E7        30.19R
SIREN          CLOUDY    35  35  96 CALM      30.18R
CUMBERLAND     CLOUDY    43  36  75 E6        30.16R
RICE LAKE      CLOUDY    45  36  70 NE8       30.18R
CHETEK         CLOUDY    44  36  74 NE6       30.17S
LADYSMITH      CLOUDY    42  35  76 NE6       30.19R
EAU CLAIRE     NOT AVBL
MENOMONIE      CLEAR     35  33  96 CALM      30.17R
NEW RICHMOND   CLEAR     32  32 100 CALM      30.17R FOG
OSCEOLA        FOG       31  31 100 CALM      30.20R VSB 1/2
$$

WIZ003>005-009-010-017-018-211200-
NORTH CENTRAL WISCONSIN

CITY           SKY/WX    TMP DP  RH WIND       PRES   REMARKS
MANITOWISH WTR CLOUDY    37  35  90 NE7       30.17R WCI  32
ARBOR VITAE    CLOUDY    39  35  85 N6        30.16R WCI  35
WOODRUFF       CLOUDY    39  35  85 N6        30.16R WCI  35
RHINELANDER    CLOUDY    38  34  85 VRB5      30.17R WCI  34
EAGLE RIVER    CLOUDY    38  36  92 NE9       30.16R WCI  31
LAND O LAKES   CLOUDY    38  36  92 NE3       30.17R
PHILLIPS       CLOUDY    39  34  81 NE9G16    30.16R WCI  33
TOMAHAWK       CLOUDY    40  33  77 CALM      30.16S
MEDFORD        CLOUDY    39  34  82 NE7       30.15R WCI  34
MERRILL        CLOUDY    41  34  77 NE8       30.16R
$$

WIZ029-030-035-036-043>047-211200-
CENTRAL WISCONSIN

CITY           SKY/WX    TMP DP  RH WIND       PRES   REMARKS
WAUSAU         CLOUDY    42  34  73 N8        30.15R
MOSINEE        CLOUDY    39  36  87 N10       30.16R WCI  32
MARSHFIELD     MOCLDY    40  34  79 N3        30.16R
STEVENS POINT  CLOUDY    37  34  89 N3        30.15R
WAUPACA        CLOUDY    42  37  83 CALM      30.16R
WAUTOMA        NOT AVBL
WISC RAPIDS    CLEAR     38  34  85 NE7       30.17R WCI  33
CAMP DOUGLAS   NOT AVBL
$$

WIZ011>013-019>022-031-037>040-048>050-211200-
NORTHEAST WISCONSIN

CITY           SKY/WX    TMP DP  RH WIND       PRES   REMARKS
ANTIGO         CLOUDY    39  35  86 N9        30.15R WCI  32
SHAWANO        PTCLDY    44  37  77 N8        30.14R
OCONTO         CLOUDY    42  38  87 N3        30.14R
STURGEON BAY   CLOUDY    45  37  76 N21       30.12R
GREEN BAY      CLOUDY    43  37  79 N10       30.14R
MANITOWOC      NOT AVBL
APPLETON       CLOUDY    43  36  75 N10       30.14R
CLINTONVILLE   CLOUDY    43  36  75 N6        30.14R
OSHKOSH        CLOUDY    44  37  76 N12       30.13R
$$

WIZ032>034-041-042-053>061-211200-
SOUTHWEST WISCONSIN

CITY           SKY/WX    TMP DP  RH WIND       PRES   REMARKS
LA CROSSE      CLEAR     37  35  92 N6        30.16R WCI  32
SPARTA         CLEAR     28  28 100 CALM      30.16R
VIROQUA        CLEAR     37  37  99 CALM      30.14R
BOSCOBEL       PTCLDY    33  31  92 CALM      30.16R
PRAIRIE DU CHI CLEAR     36  34  92 CALM      30.14R
PLATTEVILLE    CLEAR     38  36  92 CALM      30.13R
$$

WIZ056-057-062-063-064-067-068-211200-
SOUTH CENTRAL WISCONSIN

CITY           SKY/WX    TMP DP  RH WIND       PRES   REMARKS
REEDSBURG      CLEAR     41  37  84 N5        30.13R
BARABOO/DELLS  CLEAR     42  36  78 NE6       30.14R
LONE ROCK      NOT AVBL
MINERAL POINT  CLEAR     39  37  93 N6        30.12R WCI  35
MADISON        PTCLDY    44  39  82 N9        30.13R
MIDDLETON      CLEAR     45  39  80 N6        30.12R
WATERTOWN      MOCLDY    43  37  81 N7        30.11R
MONROE         CLOUDY    43  39  87 NW6       30.10R
JANESVILLE     CLOUDY    48  37  66 N8        30.10R
$$

WIZ051-052-058>065-066-070>072-211200-
SOUTHEAST WISCONSIN

CITY           SKY/WX    TMP DP  RH WIND       PRES   REMARKS
MILWAUKEE      PTCLDY    45  38  76 N8        30.10R
WAUKESHA       MOCLDY    43  37  81 NW7       30.10R
MILWAUKEE/TIMM CLOUDY    45  36  70 N8        30.10R
RACINE         CLOUDY    46  39  76 N10       30.10R
BURLINGTON     CLOUDY    43  37  79 N6        30.09R
KENOSHA        CLOUDY    45  40  82 N7        30.09R
FOND DU LAC    CLOUDY    44  37  76 N8        30.13R
SHEBOYGAN      CLOUDY    45  39  79 N10       30.11R
WEST BEND      CLOUDY    43  36  75 N5        30.10R
JUNEAU         MOCLDY    42  37  81 N9        30.12R
$$

LSZ147-162-211200-
LAKE SUPERIOR

STATION/POSITION TIME  TEMP    WIND        PRES    WAVE
                       AIR SEA DIR/SP/G            HT/PER
                 (UTC) (F)     (DEG/KT/KT) (MB)    (FT/S)
W MID LAKE BUOY  0950   41 46   60/ 10/ 14 1023.4R   3/ 5
DEVILS ISLAND    1000   43      60/ 13/ 16 1023.6R
PORT WING        1000   44     100/  2/  6 1022.7
SAXON HARBOR     1000   45      60/ 16/ 19 1022.4R
$$

LMZ867-665-643>646-211200-
LAKE MICHIGAN

STATION/POSITION TIME  TEMP    WIND        PRES    WAVE
                       AIR SEA DIR/SP/G            HT/PER
                 (UTC) (F)     (DEG/KT/KT) (MB)    (FT/S)
CHAMBERS ISLAND  1000   45     330/ 17/ 22 1019.6R
N MID LAKE BUOY  0950   46 51   10/ 21/ 23 1018.1R   4/ 5
NORTHPORT PIER   1004   46     360/ 21/ 25 1019.3R
SISTER BAY       0927           10/ 17/ 20   N/A
KEWAUNEE LAKESHO 1000   45     340/  8/ 12 1018.0R
SHEBOYGAN LAKESH 1000   46 50  350/ 19/ 21 1019.2R
PORT WASHINGTON  1000   46     350/  5/  9 1019.3
ATWATER BUOY     1000   48     360/ 16/ 19 1019.1R
MILWAUKEE LAKESH 1000   47     340/  9/ 12   N/A
S MID LAKE BUOY  0950   49 54  330/ 19/ 23 1016.9R   5/ 6
KENOSHA   LAKESH 1000   47     330/  9/ 13 1017.9R
$$

TC  - TEMPERATURE IN CELSIUS
VSB - VISIBILITY IN STATUTE MILES
WCI - WIND CHILL INDEX
HX  - HEAT INDEX



USA.gov is the U.S. government's official web portal to all federal, state and local government web resources and services.